DW4557 Weather Reports


Display with metric or nautical units.
time (UTC)temp
F
wind
direction
speed
MPH
gust
MPH
rain 1hr
in
rain 24hr
in
rain mn
in
humidity
%
barometer
mb
20190323222019 58 311 5.0 13.0 0.00 0.01 0.00 21 1020.4
20190323221519 58 324 7.0 15.0 0.00 0.01 0.00 22 1020.2
20190323221019 59 13 3.0 15.0 0.00 0.01 0.00 22 1020.2
20190323220519 59 238 3.0 16.0 0.00 0.01 0.00 21 1020.1
20190323220019 59 323 3.0 16.0 0.00 0.01 0.00 22 1020.1
20190323215519 59 318 14.0 14.0 0.00 0.01 0.00 22 1020.0
20190323215019 59 320 3.0 12.0 0.00 0.01 0.00 22 1020.0
20190323214519 59 347 6.0 13.0 0.00 0.01 0.00 22 1019.9
20190323214019 59 301 10.0 13.0 0.00 0.01 0.00 23 1019.8
20190323213519 59 289 9.0 19.0 0.00 0.01 0.00 22 1019.7
20190323213019 59 288 6.0 19.0 0.00 0.01 0.00 23 1019.7
20190323212449 59 320 11.0 15.0 0.00 0.01 0.00 22 1019.6
20190323212019 59 5 4.0 17.0 0.00 0.01 0.00 24 1019.6
20190323211449 59 250 5.0 17.0 0.00 0.01 0.00 23 1019.5
20190323211019 59 319 13.0 17.0 0.00 0.01 0.00 24 1019.4
20190323210519 59 79 6.0 15.0 0.00 0.01 0.00 22 1019.5
20190323210019 59 19 6.0 15.0 0.00 0.01 0.00 25 1019.2
20190323205519 59 242 6.0 16.0 0.00 0.01 0.00 23 1019.3
20190323205019 59 332 4.0 16.0 0.00 0.01 0.00 22 1019.3
20190323204519 59 309 3.0 16.0 0.00 0.01 0.00 22 1019.1
20190323204019 59 290 10.0 16.0 0.00 0.01 0.00 23 1019.2
20190323203519 59 277 7.0 24.0 0.00 0.01 0.00 24 1019.2
20190323203019 59 272 5.0 24.0 0.00 0.01 0.00 24 1019.3
20190323202519 59 355 9.0 19.0 0.00 0.01 0.00 25 1019.2
20190323202019 59 288 13.0 17.0 0.00 0.01 0.00 26 1019.2
20190323201519 59 51 2.0 16.0 0.00 0.01 0.00 27 1019.3
20190323201019 59 309 8.0 16.0 0.00 0.01 0.00 25 1019.2
20190323200519 59 287 12.0 16.0 0.00 0.01 0.00 26 1019.1
20190323200019 59 272 1.0 15.0 0.00 0.01 0.00 25 1019.0
20190323195519 59 324 7.0 17.0 0.00 0.01 0.00 27 1018.9
20190323195019 58 316 4.0 18.0 0.00 0.01 0.00 27 1019.0
20190323194449 58 239 8.0 18.0 0.00 0.01 0.00 25 1019.0
20190323194019 58 290 5.0 18.0 0.00 0.01 0.00 26 1019.0
20190323193519 58 340 9.0 16.0 0.00 0.01 0.00 27 1019.1
20190323193019 58 302 7.0 14.0 0.00 0.01 0.00 27 1019.1
20190323192519 58 9 2.0 18.0 0.00 0.01 0.00 26 1019.1
20190323192019 58 267 5.0 18.0 0.00 0.01 0.00 28 1019.0
20190323191449 58 304 7.0 18.0 0.00 0.01 0.00 27 1019.1
20190323190949 57 319 9.0 18.0 0.00 0.01 0.00 30 1019.1
20190323190519 57 342 2.0 18.0 0.00 0.01 0.00 27 1019.0
20190323190019 57 319 9.0 15.0 0.00 0.01 0.00 27 1019.0
20190323185519 57 303 9.0 16.0 0.00 0.01 0.00 28 1019.1
20190323185018 57 355 5.0 18.0 0.00 0.01 0.00 29 1019.0
20190323184519 57 5 7.0 18.0 0.00 0.01 0.00 28 1019.1
20190323184019 57 304 7.0 17.0 0.00 0.01 0.00 29 1019.1
20190323183519 56 327 5.0 17.0 0.00 0.01 0.00 28 1019.1
20190323183019 56 298 10.0 14.0 0.00 0.01 0.00 28 1019.2
20190323182519 56 350 9.0 14.0 0.00 0.01 0.00 28 1019.2
20190323182018 56 330 8.0 12.0 0.00 0.01 0.00 29 1019.1
20190323181520 56 298 4.0 14.0 0.00 0.01 0.00 26 1019.4
20190323181019 56 323 9.0 20.0 0.00 0.01 0.00 29 1019.4
20190323180519 56 294 5.0 20.0 0.00 0.01 0.00 28 1019.3
20190323180019 55 282 6.0 20.0 0.00 0.01 0.00 27 1019.4
20190323175519 55 314 6.0 19.0 0.00 0.01 0.00 30 1019.4
20190323175019 55 350 4.0 19.0 0.00 0.01 0.00 29 1019.5
20190323174519 55 292 10.0 19.0 0.00 0.01 0.00 31 1019.5
20190323174019 55 323 4.0 19.0 0.00 0.01 0.00 28 1019.4
20190323173519 55 199 5.0 19.0 0.00 0.01 0.00 26 1019.4
20190323173019 55 338 8.0 19.0 0.00 0.01 0.00 31 1019.4
20190323172448 54 310 10.0 21.0 0.00 0.01 0.00 29 1019.4
20190323172019 54 292 14.0 21.0 0.00 0.01 0.00 29 1019.4
20190323171519 54 284 13.0 21.0 0.00 0.01 0.00 29 1019.5
20190323171019 54 292 9.0 15.0 0.00 0.01 0.00 32 1019.5
20190323170519 54 305 8.0 15.0 0.00 0.01 0.00 28 1019.5
20190323170019 54 295 8.0 12.0 0.00 0.01 0.00 32 1019.5
20190323165519 54 271 10.0 12.0 0.00 0.01 0.00 33 1019.4
20190323165019 54 335 4.0 13.0 0.00 0.01 0.00 31 1019.4
20190323164518 54 287 9.0 17.0 0.00 0.01 0.00 33 1019.5
20190323163949 53 355 6.0 17.0 0.00 0.01 0.00 31 1019.5
20190323163519 54 267 14.0 17.0 0.00 0.01 0.00 31 1019.4
20190323163019 53 250 5.0 15.0 0.00 0.01 0.00 32 1019.6
20190323162449 53 241 6.0 20.0 0.00 0.01 0.00 32 1019.6
20190323161949 52 234 2.0 20.0 0.00 0.01 0.00 31 1019.7
20190323161518 53 269 13.0 20.0 0.00 0.01 0.00 35 1019.7
20190323160948 52 290 2.0 19.0 0.00 0.01 0.00 35 1019.7
20190323160519 52 302 6.0 19.0 0.00 0.01 0.00 31 1019.6
20190323160019 52 341 9.0 16.0 0.00 0.01 0.00 36 1019.7
20190323155520 52 311 13.0 14.0 0.00 0.01 0.00 35 1019.7
20190323155019 52 338 6.0 18.0 0.00 0.01 0.00 37 1019.6
20190323154519 51 321 11.0 18.0 0.00 0.01 0.00 35 1019.7
20190323153949 51 334 11.0 15.0 0.00 0.01 0.00 34 1019.7
20190323153448 51 305 5.0 16.0 0.00 0.01 0.00 36 1019.6
20190323153019 51 273 5.0 17.0 0.00 0.01 0.00 36 1019.7
20190323152519 51 355 8.0 17.0 0.00 0.01 0.00 35 1019.6
20190323152019 51 297 3.0 14.0 0.00 0.01 0.00 37 1019.7
20190323151449 50 302 9.0 19.0 0.00 0.01 0.00 35 1019.7
20190323151018 50 225 8.0 19.0 0.00 0.01 0.00 37 1019.7
20190323150519 50 329 16.0 19.0 0.00 0.01 0.00 37 1019.6
20190323150019 50 232 10.0 20.0 0.00 0.01 0.00 40 1019.6
20190323145519 49 290 9.0 20.0 0.00 0.01 0.00 38 1019.5
20190323145018 49 320 8.0 20.0 0.00 0.01 0.00 39 1019.5
20190323144519 49 341 12.0 18.0 0.00 0.01 0.00 40 1019.3
20190323144018 49 360 7.0 17.0 0.00 0.01 0.00 39 1019.3
20190323143519 49 296 4.0 19.0 0.00 0.01 0.00 40 1019.4
20190323143019 48 253 9.0 19.0 0.00 0.01 0.00 40 1019.4
20190323142518 49 312 13.0 21.0 0.00 0.01 0.00 42 1019.4
20190323142018 48 336 5.0 21.0 0.00 0.01 0.00 42 1019.4
20190323141518 48 294 3.0 21.0 0.00 0.01 0.00 40 1019.4
20190323141018 48 291 7.0 17.0 0.00 0.01 0.00 42 1019.3
20190323140518 48 273 9.0 17.0 0.00 0.01 0.00 43 1019.2
20190323140019 47 336 9.0 16.0 0.00 0.01 0.00 43 1019.1
20190323135519 47 333 8.0 18.0 0.00 0.01 0.00 44 1019.1
20190323135020 47 286 2.0 23.0 0.00 0.01 0.00 44 1019.0
20190323134519 47 333 2.0 23.0 0.00 0.01 0.00 45 1019.0
20190323134019 47 317 11.0 23.0 0.00 0.01 0.00 44 1018.9
20190323133518 47 324 8.0 21.0 0.00 0.01 0.00 45 1018.8
20190323133019 47 251 4.0 17.0 0.00 0.01 0.00 44 1018.8
20190323132518 47 330 6.0 17.0 0.00 0.01 0.00 45 1018.7
20190323132018 46 270 4.0 20.0 0.00 0.01 0.00 45 1018.6
20190323131518 46 322 4.0 20.0 0.00 0.01 0.00 46 1018.6
20190323131018 46 317 7.0 20.0 0.00 0.01 0.00 48 1018.5
20190323130518 46 5 4.0 14.0 0.00 0.01 0.00 48 1018.5
20190323130019 46 346 6.0 12.0 0.00 0.01 0.00 51 1018.4
20190323125519 45 298 3.0 13.0 0.00 0.01 0.00 49 1018.4
20190323125018 45 340 4.0 13.0 0.00 0.01 0.00 50 1018.4
20190323124519 45 319 11.0 17.0 0.00 0.01 0.00 51 1018.3
20190323124019 44 183 5.0 17.0 0.00 0.01 0.00 51 1018.2
20190323123519 44 250 5.0 16.0 0.00 0.01 0.00 52 1018.1
20190323123018 44 327 7.0 16.0 0.00 0.01 0.00 52 1018.0
20190323122518 43 278 7.0 14.0 0.00 0.01 0.00 52 1018.0
20190323122018 43 240 7.0 14.0 0.00 0.01 0.00 53 1017.8
20190323121519 43 315 10.0 10.0 0.00 0.01 0.00 55 1017.8
20190323121019 43 286 6.0 9.0 0.00 0.01 0.00 54 1017.7
20190323120448 43 243 4.0 11.0 0.00 0.01 0.00 55 1017.5
20190323120019 42 242 2.0 11.0 0.00 0.01 0.00 54 1017.4
20190323115519 42 288 6.0 10.0 0.00 0.01 0.00 56 1017.2
20190323115018 42 258 4.0 8.0 0.00 0.01 0.00 55 1017.1
20190323114519 42 292 3.0 9.0 0.00 0.01 0.00 56 1017.0
20190323114018 41 276 3.0 10.0 0.00 0.01 0.00 56 1016.9
20190323113518 41 216 3.0 10.0 0.00 0.01 0.00 56 1016.9
20190323113019 41 306 6.0 10.0 0.00 0.01 0.00 58 1016.7
20190323112518 41 234 2.0 10.0 0.00 0.01 0.00 57 1016.6
20190323112019 41 295 4.0 10.0 0.00 0.01 0.00 56 1016.5
20190323111518 41 221 5.0 10.0 0.00 0.01 0.00 56 1016.4
20190323111018 41 315 6.0 10.0 0.00 0.01 0.00 57 1016.3
20190323110518 42 302 2.0 11.0 0.00 0.01 0.00 56 1016.1
20190323110018 42 259 2.0 11.0 0.00 0.01 0.00 55 1015.9
20190323105518 42 297 2.0 11.0 0.00 0.01 0.00 56 1015.8
20190323105019 42 226 4.0 10.0 0.00 0.01 0.00 55 1015.7
20190323104518 42 276 3.0 13.0 0.00 0.01 0.00 55 1015.6
20190323104018 42 347 8.0 13.0 0.00 0.01 0.00 54 1015.5
20190323103518 42 308 11.0 13.0 0.00 0.01 0.00 53 1015.3
20190323103018 42 298 4.0 15.0 0.00 0.01 0.00 54 1015.4
20190323102518 42 309 5.0 15.0 0.00 0.01 0.00 53 1015.3
20190323102019 42 269 8.0 12.0 0.00 0.01 0.00 53 1015.2
20190323101448 42 321 4.0 11.0 0.00 0.01 0.00 53 1015.0
20190323101018 42 218 5.0 9.0 0.00 0.01 0.00 53 1015.0
20190323100519 42 290 6.0 10.0 0.00 0.01 0.00 53 1014.9
20190323100019 42 227 5.0 10.0 0.00 0.01 0.00 53 1014.9
20190323095518 42 339 4.0 10.0 0.00 0.01 0.00 53 1014.7
20190323095018 42 294 6.0 10.0 0.00 0.01 0.00 54 1014.6
20190323094518 42 315 6.0 10.0 0.00 0.01 0.00 54 1014.6
20190323094018 42 311 4.0 8.0 0.00 0.01 0.00 54 1014.6
20190323093518 42 310 6.0 10.0 0.00 0.01 0.00 55 1014.5
20190323093018 42 236 3.0 10.0 0.00 0.01 0.00 54 1014.3
20190323092518 42 257 5.0 9.0 0.00 0.01 0.00 54 1014.2
20190323092019 42 240 5.0 10.0 0.00 0.01 0.00 54 1014.1
20190323091518 42 229 5.0 10.0 0.00 0.01 0.00 54 1014.0
20190323091019 42 223 4.0 10.0 0.00 0.01 0.00 53 1014.0
20190323090448 42 292 3.0 8.0 0.00 0.01 0.00 54 1013.9
20190323090018 42 261 4.0 11.0 0.00 0.01 0.00 53 1013.9
20190323085518 42 291 3.0 11.0 0.00 0.01 0.00 53 1013.8
20190323085018 42 244 2.0 10.0 0.00 0.01 0.00 53 1013.8
20190323084518 42 309 9.0 9.0 0.00 0.01 0.00 52 1013.7
20190323084019 42 259 1.0 9.0 0.00 0.01 0.00 53 1013.7
20190323083518 42 252 3.0 8.0 0.00 0.01 0.00 53 1013.6
20190323083018 42 304 6.0 9.0 0.00 0.01 0.00 53 1013.4
20190323082518 43 304 6.0 10.0 0.00 0.01 0.00 54 1013.3
20190323082018 43 267 4.0 10.0 0.00 0.01 0.00 53 1013.3
20190323081518 43 244 3.0 10.0 0.00 0.01 0.00 54 1013.2
20190323081018 43 250 3.0 10.0 0.00 0.01 0.00 53 1013.2
20190323080518 43 260 5.0 9.0 0.00 0.01 0.00 53 1013.2
20190323080019 43 283 3.0 9.0 0.00 0.01 0.00 55 1013.2
20190323075448 43 273 4.0 9.0 0.00 0.01 0.00 52 1013.1
20190323075018 43 255 3.0 11.0 0.00 0.01 0.00 52 1013.0
20190323074448 43 247 9.0 12.0 0.00 0.01 0.00 53 1013.1
20190323074018 43 310 10.0 12.0 0.00 0.01 0.00 52 1013.0
20190323073518 43 229 3.0 11.0 0.00 0.01 0.00 52 1013.1
20190323073018 44 265 3.0 13.0 0.00 0.01 0.00 50 1012.9
20190323072518 44 234 3.0 13.0 0.00 0.01 0.00 51 1013.0
20190323072019 44 221 3.0 12.0 0.00 0.01 0.00 50 1013.0
20190323071518 44 254 5.0 14.0 0.00 0.01 0.00 50 1013.0
20190323071018 44 282 8.0 14.0 0.00 0.01 0.00 50 1012.9
20190323070518 44 350 3.0 14.0 0.00 0.01 0.00 50 1012.9
20190323070019 44 236 8.0 14.0 0.00 0.01 0.00 50 1012.9
20190323065518 44 332 5.0 13.0 0.00 0.01 0.00 50 1012.9
20190323065018 44 256 8.0 13.0 0.00 0.01 0.00 49 1012.9
20190323064448 44 309 5.0 13.0 0.00 0.01 0.00 49 1012.8
20190323063948 44 298 12.0 13.0 0.00 0.01 0.00 50 1012.9
20190323063518 44 322 3.0 13.0 0.00 0.01 0.00 49 1012.9
20190323063018 45 300 8.0 13.0 0.00 0.01 0.00 49 1013.0
20190323062518 44 271 6.0 16.0 0.00 0.01 0.00 51 1013.0
20190323062018 44 261 4.0 16.0 0.00 0.01 0.00 49 1012.9
20190323061448 44 321 9.0 13.0 0.00 0.01 0.00 51 1012.9
20190323061018 44 323 3.0 15.0 0.00 0.01 0.00 51 1012.8
20190323060518 44 276 3.0 15.0 0.00 0.01 0.00 51 1012.8
20190323060018 45 355 9.0 14.0 0.00 0.01 0.00 51 1012.8
20190323055518 45 279 7.0 14.0 0.00 0.01 0.00 51 1012.8
20190323054948 45 288 2.0 13.0 0.00 0.01 0.00 53 1012.8
20190323054518 45 284 10.0 13.0 0.00 0.01 0.00 52 1012.7
20190323054018 45 280 3.0 13.0 0.00 0.01 0.00 52 1012.7
20190323053449 45 279 3.0 15.0 0.00 0.01 0.00 51 1012.6
20190323053132 45 260 8.0 15.0 0.00 0.01 0.00 52 1012.7
20190323052518 45 306 6.0 16.0 0.00 0.01 0.00 51 1012.6
20190323052018 45 231 5.0 16.0 0.00 0.01 0.00 51 1012.4
20190323051518 45 225 6.0 12.0 0.00 0.01 0.00 51 1012.6
20190323051018 45 319 5.0 13.0 0.00 0.01 0.00 52 1012.7
20190323050518 45 286 11.0 14.0 0.00 0.01 0.00 52 1012.6
20190323050018 45 315 7.0 14.0 0.00 0.01 0.00 53 1012.5
20190323045518 45 290 4.0 13.0 0.00 0.01 0.00 54 1012.5
20190323044948 45 301 13.0 13.0 0.00 0.01 0.00 53 1012.5
20190323044518 46 284 5.0 12.0 0.00 0.01 0.00 53 1012.4
20190323043948 46 321 4.0 14.0 0.00 0.01 0.00 54 1012.3
20190323043518 46 251 7.0 16.0 0.00 0.01 0.00 53 1012.3
20190323043018 46 292 7.0 16.0 0.00 0.01 0.00 53 1012.2
20190323042518 46 269 8.0 15.0 0.00 0.01 0.00 54 1012.2
20190323042018 46 11 6.0 12.0 0.00 0.01 0.00 55 1012.2
20190323041448 46 304 9.0 14.0 0.00 0.01 0.00 55 1012.2
20190323041018 46 309 9.0 14.0 0.00 0.01 0.00 55 1012.2
20190323040519 46 343 7.0 14.0 0.00 0.01 0.00 55 1012.1
20190323040019 46 16 9.0 18.0 0.00 0.01 0.00 55 1012.1
20190323035518 47 301 3.0 18.0 0.00 0.01 0.01 54 1012.1
20190323035018 47 282 8.0 18.0 0.00 0.01 0.01 53 1012.0
20190323034518 47 256 6.0 15.0 0.00 0.01 0.01 54 1011.9
20190323034018 47 324 5.0 17.0 0.00 0.01 0.01 55 1011.9
20190323033518 47 338 5.0 17.0 0.00 0.01 0.01 55 1011.8
20190323033018 47 238 5.0 17.0 0.00 0.01 0.01 56 1011.8
20190323032518 47 265 9.0 16.0 0.00 0.01 0.01 55 1011.7
20190323032018 47 336 6.0 18.0 0.00 0.01 0.01 54 1011.7
20190323031518 47 328 5.0 18.0 0.00 0.01 0.01 54 1011.5
20190323031018 47 301 6.0 14.0 0.00 0.01 0.01 56 1011.5
20190323030518 47 11 5.0 14.0 0.00 0.01 0.01 56 1011.4
20190323030018 47 293 7.0 16.0 0.00 0.01 0.01 57 1011.3
20190323025518 47 290 5.0 16.0 0.00 0.01 0.01 57 1011.2
20190323025018 47 321 9.0 16.0 0.00 0.01 0.01 58 1011.1
20190323024518 47 319 16.0 16.0 0.00 0.01 0.01 59 1011.0
20190323024018 47 295 6.0 17.0 0.00 0.01 0.01 60 1011.0
20190323023518 47 257 16.0 17.0 0.00 0.01 0.01 61 1011.0
20190323023018 47 274 3.0 12.0 0.00 0.01 0.01 62 1010.8
20190323022518 47 253 7.0 12.0 0.00 0.01 0.01 63 1010.9
20190323022018 47 348 4.0 11.0 0.00 0.01 0.01 63 1010.8
20190323021519 47 355 6.0 14.0 0.00 0.01 0.01 64 1010.7
20190323021018 47 296 6.0 14.0 0.00 0.01 0.01 63 1010.6
20190323020518 47 295 6.0 12.0 0.00 0.01 0.01 65 1010.5
20190323020021 47 314 6.0 21.0 0.00 0.01 0.01 64 1010.4
20190323015518 47 244 3.0 21.0 0.00 0.01 0.01 64 1010.4
20190323015018 47 10 2.0 19.0 0.00 0.01 0.01 64 1010.3
20190323014518 47 315 3.0 19.0 0.00 0.01 0.01 64 1010.2
20190323014020 47 296 11.0 19.0 0.00 0.01 0.01 62 1010.1
20190323013518 47 333 7.0 20.0 0.00 0.01 0.01 63 1010.0
20190323013018 47 342 4.0 20.0 0.00 0.01 0.01 63 1009.9
20190323012518 47 322 6.0 22.0 0.00 0.01 0.01 62 1009.8
20190323012018 47 360 4.0 23.0 0.00 0.01 0.01 60 1009.7
20190323011518 48 360 8.0 23.0 0.00 0.01 0.01 59 1009.5
20190323011018 48 325 11.0 21.0 0.00 0.01 0.01 59 1009.3
20190323010518 48 264 6.0 21.0 0.00 0.01 0.01 60 1009.3
20190323010018 48 303 11.0 20.0 0.00 0.01 0.01 60 1009.2
20190323005518 48 11 8.0 21.0 0.01 0.01 0.01 61 1009.0
20190323005018 48 313 7.0 21.0 0.01 0.01 0.01 64 1008.6
20190323004518 48 9 9.0 21.0 0.01 0.01 0.01 67 1008.8
20190323004018 48 303 12.0 17.0 0.01 0.01 0.01 69 1009.0
20190323003518 48 298 12.0 17.0 0.01 0.01 0.01 70 1008.6
20190323003018 47 279 10.0 16.0 0.01 0.01 0.01 72 1008.7
20190323002518 47 323 11.0 20.0 0.01 0.01 0.01 73 1008.4
20190323002018 47 316 8.0 20.0 0.01 0.01 0.01 73 1008.2
20190323001518 47 360 10.0 20.0 0.01 0.01 0.01 74 1008.0
20190323001018 47 315 10.0 24.0 0.01 0.01 0.01 76 1008.3
20190323000519 46 350 12.0 28.0 0.01 0.01 0.01 78 1008.4
20190323000018 47 329 7.0 34.0 0.01 0.01 0.01 77 1008.2
20190322235518 48 340 14.0 34.0 0.00 0.00 0.00 73 1007.9
20190322235018 52 325 14.0 24.0 0.00 0.00 0.00 59 1007.3
20190322234518 55 304 3.0 8.0 0.00 0.00 0.00 43 1006.2
20190322234018 55 279 2.0 9.0 0.00 0.00 0.00 45 1005.7
20190322233518 55 296 5.0 9.0 0.00 0.00 0.00 44 1005.5
20190322233018 55 270 4.0 12.0 0.00 0.00 0.00 44 1005.3
20190322232518 55 294 3.0 12.0 0.00 0.00 0.00 43 1005.1
20190322232018 55 225 5.0 15.0 0.00 0.00 0.00 43 1005.0
20190322231518 55 254 8.0 15.0 0.00 0.00 0.00 42 1004.9
20190322231018 55 238 6.0 13.0 0.00 0.00 0.00 42 1004.8
20190322230518 55 240 4.0 15.0 0.00 0.00 0.00 42 1004.8
20190322230018 56 223 6.0 20.0 0.00 0.00 0.00 41 1004.8
20190322225518 56 286 8.0 20.0 0.00 0.00 0.00 40 1004.8
20190322225018 56 242 15.0 17.0 0.00 0.00 0.00 40 1004.7
20190322224518 56 248 15.0 17.0 0.00 0.00 0.00 40 1004.7
20190322224018 56 245 6.0 17.0 0.00 0.00 0.00 39 1004.6
20190322223518 57 202 3.0 18.0 0.00 0.00 0.00 39 1004.5
20190322223018 57 240 6.0 18.0 0.00 0.00 0.00 39 1004.4
20190322222518 57 284 4.0 15.0 0.00 0.00 0.00 37 1004.3